Regional Weather Roundup
Issued by NWS

Home | Current Version | Previous Version | Text Only | Print | Product List | Glossary Off
Versions: 1 2 3 4 5 6 7 8 9 10 11 12 13 14 15 16 17 18 19 20 21 22 23 24 25 26 27 28 29 30 31 32 33 34 35 36 37 38 39 40 41 42 43 44 45 46 47 48 49 50

000
ASUS43 KIND 310809
RWRIN

WEATHER ROUNDUP FOR INDIANA
NATIONAL WEATHER SERVICE INDIANAPOLIS IN
300 AM EST SAT JAN 31 2015

NOTE: "FAIR" INDICATES FEW OR NO CLOUDS BELOW 12,000 FEET WITH NO
SIGNIFICANT WEATHER AND/OR OBSTRUCTIONS TO VISIBILITY.

* - STATION DOES NOT REPORT WEATHER SUCH AS PRECIPITATION OR FOG.

+ - STATION NOT QUALITY CONTROLLED BY THE NATIONAL WEATHER SERVICE.
    USE DATA WITH CAUTION...ESPECIALLY DEWPOINT AND RELATIVE
    HUMIDITY OBSERVATIONS.

INZ001>003-010>013-019-020-310900-
NORTHWEST INDIANA

CITY           SKY/WX    TMP DP  RH WIND       PRES   REMARKS
GARY /AIRPORT/ CLOUDY    26  17  70 S3        30.33F
KNOX *+        PTCLDY    19   9  63 S6        30.33F WCI  11
LA PORTE +     CLOUDY    19  16  90 CALM      30.34S
MICHIGAN CITY+ MOCLDY    21  14  73 CALM      30.33S
MONTICELLO +   CLEAR     21  17  84 S5        30.36S WCI  14
RENSSELAER +   MOCLDY    23  21  93 S5        30.35F WCI  17
VALPARAISO     MOCLDY    20  16  84 SW3       30.33F

$$

LMZ046-743>745-310900-
SOUTHERN LAKE MICHIGAN

STATION/POSITION TIME  TEMP WIND        PRES
                       AIR  DIR/SP/G
                 (UTC) (F)  (DEG/KT/KT) (MB)
MICHIGAN CITY    0800   23  160/ 10/ 14   N/A

$$

INZ004-005-014>016-021>024-310900-
NORTH CENTRAL INDIANA

CITY           SKY/WX    TMP DP  RH WIND       PRES   REMARKS
GOSHEN         CLEAR     18  12  77 S6        30.33F WCI  10
LOGANSPORT +   CLEAR     19  18  93 S6        30.36F WCI  11
PERU/GRISSOM   CLEAR     19  15  86 S7        30.35F WCI   9
ROCHESTER +    CLEAR     25  19  80 SW6       30.35F WCI  18
SOUTH BEND     CLEAR     16  11  80 SW7       30.33F WCI   6
WARSAW +       CLEAR     16  14  93 CALM      30.34S

$$

INZ006>009-017-018-025>027-310900-
NORTHEAST INDIANA

CITY           SKY/WX    TMP DP  RH WIND       PRES   REMARKS
ANGOLA *+      CLEAR     10   9  92 CALM      30.33S
AUBURN +       CLEAR     16  12  86 CALM      30.35F
FORT WAYNE     CLEAR     16  12  84 S7        30.36F WCI   6
HUNTINGTON +   CLEAR     15  11  83 S3        30.36S

$$

INZ028-029-035-036-043>045-051>053-310900-
WEST CENTRAL INDIANA

CITY           SKY/WX    TMP DP  RH WIND       PRES   REMARKS
GREENCASTLE +  CLEAR     18  12  79 CALM      30.39S
LAFAYETTE      CLEAR     18  15  88 CALM      30.37F
TERRE HAUTE    CLEAR     20  16  84 CALM      30.40F

$$

INZ030>032-037>040-046>048-054>057-064-065-310900-
CENTRAL INDIANA

CITY           SKY/WX    TMP DP  RH WIND       PRES   REMARKS
CP ATTERBURY + CLEAR     18  14  86 CALM      30.41S
FRANKFORT +    CLEAR     20  18  89 SE5       30.38S WCI  14
GREENWOOD *+   CLEAR     21  14  73 S3        30.39F
INDIANAPOLIS   CLEAR     19  15  84 S3        30.38F
-EAGLE CREEK   CLEAR     18  15  88 CALM      30.38S
KOKOMO *+      CLEAR     19  14  79 S7        30.37S WCI  10
MARION +       CLEAR     18  15  87 SW5       30.37S WCI  11
MT COMFORT *+  CLEAR     19  14  79 S6        30.39S WCI  11
SHELBYVILLE    CLEAR     22  16  78 SE5       30.39S WCI  16
ZIONSVILLE +   CLEAR     20  16  82 S5        30.38S WCI  14

$$

INZ033-034-041-042-049-050-058-059-310900-
EAST CENTRAL INDIANA

CITY           SKY/WX    TMP DP  RH WIND       PRES   REMARKS
MUNCIE         CLEAR     20  15  81 S5        30.37F WCI  13

$$

INZ060-061-067>069-081>083-085>088-310900-
SOUTHWEST INDIANA

CITY           SKY/WX    TMP DP  RH WIND       PRES   REMARKS
EVANSVILLE     CLEAR     24  20  84 CALM      30.43S
HUNTINGBURG *+ CLEAR     21  16  79 CALM      30.42S
WASHINGTON +   CLEAR     24  21  87 CALM      30.41F

$$

INZ062-063-066-070>080-084-089>092-310900-
SOUTH CENTRAL AND SOUTHEAST INDIANA

CITY           SKY/WX    TMP DP  RH WIND       PRES   REMARKS
BLOOMINGTON    CLEAR     18  14  84 CALM      30.39S
NORTH VERNON + CLEAR     19  19 100 CALM      30.41S
SEYMOUR +      CLEAR     21  18  86 CALM      30.42R

$$



USA.gov is the U.S. government's official web portal to all federal, state and local government web resources and services.